Location: Red Deer
(52.2681°N, 113.8112°W)
Time: 12:11:10
(UTC-06:00)

CAS-6 - Visible Passes

Search period start: 17 May 2022 00:00
Search period end: 27 May 2022 00:00
Orbit: 614 x 633 km, 97.9° (Epoch: 17 May)

Date Brightness Start Highest point End Pass type
(mag) Time Alt. Az. Time Alt. Az. Time Alt. Az.
17 May ? 00:03:18 24° S 00:05:47 55° W 00:10:08 10° NNW visible
17 May ? 22:44:41 12° ESE 22:48:14 31° ENE 22:52:07 10° N visible
18 May ? 00:21:55 21° SSW 00:24:21 37° W 00:28:28 10° NNW visible
18 May ? 23:03:19 15° SE 23:06:36 44° ENE 23:10:48 10° N visible
19 May ? 00:40:33 16° SW 00:42:59 26° W 00:46:41 10° NW visible
19 May ? 23:21:56 19° SSE 23:25:01 64° ENE 23:29:24 10° N visible
20 May ? 00:59:11 12° SW 01:01:40 18° W 01:04:42 10° NW visible
20 May ? 23:40:34 21° SSE 23:43:30 88° W 23:47:56 10° NNW visible
21 May ? 01:18:30 10° WSW 01:20:23 12° W 01:22:16 10° WNW visible
21 May ? 22:22:53 10° ESE 22:26:11 21° ENE 22:29:30 10° N visible
21 May ? 23:59:12 21° S 00:02:01 60° W 00:06:23 10° NNW visible
22 May ? 22:40:43 10° ESE 22:44:30 29° ENE 22:48:18 10° N visible
23 May ? 00:17:50 19° SSW 00:20:34 40° W 00:24:45 10° NNW visible
23 May ? 22:59:13 13° SE 23:02:51 41° ENE 23:07:00 10° N visible
24 May ? 00:36:27 16° SW 00:39:10 28° W 00:42:59 10° NW visible
24 May ? 23:17:51 16° SSE 23:21:16 59° ENE 23:25:36 10° N visible
25 May ? 00:55:05 12° SW 00:57:50 20° W 01:01:03 10° NW visible
25 May ? 23:36:28 18° SSE 23:39:43 86° ENE 23:44:09 10° NNW visible
26 May ? 01:14:19 10° WSW 01:16:32 14° W 01:18:45 10° NW visible
